Location: Freiburg+im+Breisgau
(48.0359°N, 7.8195°E)
Time: 12:48:03
(UTC+01:00)

ISS - Visible Passes

Search period start: 22 January 2018 00:00
Search period end: 01 February 2018 00:00
Orbit: 402 x 407 km, 51.6° (Epoch: 22 January)

Date Brightness Start Highest point End Pass type
(mag) Time Alt. Az. Time Alt. Az. Time Alt. Az.
25 Jan -1.2 19:45:34 10° SSW 19:46:17 15° SSW 19:46:17 15° SSW visible
26 Jan -2.3 18:53:49 10° SSW 18:56:24 22° SE 18:56:24 22° SE visible
27 Jan -1.6 18:02:37 10° SSE 18:04:16 13° SE 18:05:54 10° ESE visible
27 Jan -2.5 19:36:59 10° WSW 19:39:05 36° SW 19:39:05 36° SW visible
28 Jan -3.2 18:44:49 10° SW 18:47:56 42° SSE 18:49:02 30° E visible
28 Jan -0.5 20:21:10 10° W 20:21:42 14° W 20:21:42 14° W visible
29 Jan -2.4 17:52:54 10° SSW 17:55:41 26° SE 17:58:27 10° E visible
29 Jan -3.4 19:28:40 10° WSW 19:31:34 62° WNW 19:31:34 62° WNW visible
30 Jan -3.9 18:36:16 10° WSW 18:39:31 80° SSE 18:41:23 24° ENE visible
30 Jan -0.9 20:13:02 10° W 20:14:02 18° WNW 20:14:02 18° WNW visible
31 Jan -3.4 19:20:29 10° W 19:23:40 50° NNW 19:23:48 49° N visible
